TimePST,TemperatureF,Dew PointF,Humidity,Sea Level PressureIn,VisibilityMPH,Wind Direction,Wind SpeedMPH,Gust SpeedMPH,PrecipitationIn,Events,Conditions,WindDirDegrees,DateUTC
12:53 AM,28.9,27.0,92,30.08,8.0,SSE,4.6,-,N/A,,Clear,160,2013-02-05 08:53:00
1:53 AM,28.9,27.0,92,30.08,8.0,South,5.8,-,N/A,,Clear,190,2013-02-05 09:53:00
2:53 AM,28.9,27.0,92,30.06,8.0,Calm,Calm,-,N/A,,Clear,0,2013-02-05 10:53:00
3:53 AM,28.9,27.0,92,30.06,9.0,South,5.8,-,N/A,,Clear,190,2013-02-05 11:53:00
4:53 AM,30.0,28.0,92,30.06,10.0,Calm,Calm,-,N/A,,Mostly Cloudy,0,2013-02-05 12:53:00
5:53 AM,30.0,27.0,88,30.03,10.0,SSE,10.4,-,N/A,,Overcast,150,2013-02-05 13:53:00
6:53 AM,28.4,28.4,100,29.94,8.0,Calm,Calm,-,N/A,,Mostly Cloudy,0,2013-02-05 14:53:00
7:53 AM,28.9,26.1,89,30.03,8.0,Calm,Calm,-,N/A,,Clear,0,2013-02-05 15:53:00
8:53 AM,30.0,28.0,92,30.03,7.0,North,3.5,-,N/A,,Clear,360,2013-02-05 16:53:00
9:31 AM,32.0,28.4,87,29.95,10.0,North,3.5,-,N/A,,Mostly Cloudy,360,2013-02-05 17:31:00
9:53 AM,32.0,28.9,88,30.02,10.0,Calm,Calm,-,N/A,,Overcast,0,2013-02-05 17:53:00
10:22 AM,33.8,28.4,81,29.95,10.0,SSE,3.5,-,N/A,,Partly Cloudy,160,2013-02-05 18:22:00
10:53 AM,34.0,28.9,82,30.01,10.0,Calm,Calm,-,N/A,,Clear,0,2013-02-05 18:53:00
11:53 AM,36.0,30.0,79,29.98,10.0,SW,4.6,-,N/A,,Clear,230,2013-02-05 19:53:00
12:53 PM,37.9,30.0,73,29.94,10.0,SW,5.8,-,N/A,,Mostly Cloudy,220,2013-02-05 20:53:00
1:53 PM,37.9,30.0,73,29.93,10.0,West,4.6,-,N/A,,Mostly Cloudy,270,2013-02-05 21:53:00
2:53 PM,37.0,30.9,79,29.94,10.0,West,5.8,-,N/A,,Mostly Cloudy,280,2013-02-05 22:53:00
3:53 PM,36.0,30.9,82,29.97,10.0,West,8.1,-,N/A,,Overcast,270,2013-02-05 23:53:00
4:53 PM,35.1,30.9,85,29.97,10.0,South,6.9,-,0.00,Rain,Light Rain,170,2013-02-06 00:53:00
5:53 PM,32.0,30.0,92,29.99,10.0,South,5.8,-,0.00,,Scattered Clouds,170,2013-02-06 01:53:00
6:53 PM,30.0,28.0,92,30.00,10.0,SSE,5.8,-,N/A,,Clear,160,2013-02-06 02:53:00
7:53 PM,28.4,26.6,93,29.93,10.0,South,5.8,-,N/A,,Clear,170,2013-02-06 03:53:00
8:53 PM,28.9,26.1,89,30.02,10.0,Calm,Calm,-,N/A,,Clear,0,2013-02-06 04:53:00
9:53 PM,27.0,25.0,92,30.03,10.0,SSW,3.5,-,N/A,,Clear,200,2013-02-06 05:53:00
10:53 PM,30.0,27.0,88,30.04,10.0,SSE,8.1,-,N/A,,Overcast,150,2013-02-06 06:53:00
11:53 PM,24.1,21.9,91,30.07,10.0,West,5.8,-,N/A,,Clear,270,2013-02-06 07:53:00